Time,TemperatureF,DewpointF,PressureIn,WindDirection,WindDirectionDegrees,WindSpeedMPH,WindSpeedGustMPH,Humidity,HourlyPrecipIn,Conditions,Clouds,dailyrainin,SolarRadiationWatts/m^2,SoftwareType,DateUTC
2013-05-16 00:00:00,50.4,46.1,29.75,West,270,0.0,2.0,85,0.13,,,-99.99,0,WeatherLink 5.7,2013-05-16 06:00:00,
2013-05-16 00:10:00,49.9,45.9,29.73,ESE,112,1.0,4.0,86,0.13,,,-99.99,0,WeatherLink 5.7,2013-05-16 06:10:00,
2013-05-16 00:20:00,49.8,45.8,29.71,ESE,112,0.0,3.0,86,0.13,,,-99.99,0,WeatherLink 5.7,2013-05-16 06:20:00,
2013-05-16 00:25:00,49.5,45.5,29.71,ESE,112,1.0,4.0,86,0.13,,,-99.99,0,WeatherLink 5.7,2013-05-16 06:25:00,
2013-05-16 00:30:00,49.2,45.2,29.71,East,90,3.0,6.0,86,0.13,,,-99.99,0,WeatherLink 5.7,2013-05-16 06:30:00,
2013-05-16 00:35:00,49.3,45.3,29.72,East,90,3.0,5.0,86,0.10,,,-99.99,0,WeatherLink 5.7,2013-05-16 06:35:00,
2013-05-16 00:45:00,49.2,45.2,29.72,East,90,2.0,4.0,86,0.02,,,-99.99,0,WeatherLink 5.7,2013-05-16 06:45:00,
2013-05-16 00:50:00,49.3,45.3,29.72,East,90,1.0,4.0,86,0.01,,,-99.99,0,WeatherLink 5.7,2013-05-16 06:50:00,
2013-05-16 01:00:00,49.2,44.9,29.72,ESE,112,1.0,4.0,85,0.00,,,-99.99,0,WeatherLink 5.7,2013-05-16 07:00:00,
2013-05-16 01:10:00,49.5,44.6,29.70,West,270,0.0,3.0,83,0.00,,,-99.99,0,WeatherLink 5.7,2013-05-16 07:10:00,
2013-05-16 01:20:00,49.3,44.4,29.71,North,-999,0.0,0.0,83,0.00,,,-99.99,0,WeatherLink 5.7,2013-05-16 07:20:00,
2013-05-16 01:25:00,49.2,44.3,29.71,North,-999,0.0,0.0,83,0.00,,,-99.99,0,WeatherLink 5.7,2013-05-16 07:25:00,
2013-05-16 01:35:00,48.8,44.2,29.70,West,270,0.0,2.0,84,0.00,,,-99.99,0,WeatherLink 5.7,2013-05-16 07:35:00,
2013-05-16 01:45:00,48.5,43.9,29.70,North,-999,0.0,0.0,84,0.00,,,-99.99,0,WeatherLink 5.7,2013-05-16 07:45:00,
2013-05-16 01:50:00,48.2,43.6,29.69,South,180,0.0,1.0,84,0.00,,,-99.99,0,WeatherLink 5.7,2013-05-16 07:50:00,
2013-05-16 01:55:00,47.9,43.3,29.69,North,-999,0.0,0.0,84,0.00,,,-99.99,0,WeatherLink 5.7,2013-05-16 07:55:00,
2013-05-16 02:00:00,47.7,43.4,29.69,North,-999,0.0,0.0,85,0.00,,,-99.99,0,WeatherLink 5.7,2013-05-16 08:00:00,
2013-05-16 02:10:00,47.4,43.1,29.70,SE,135,1.0,6.0,85,0.00,,,-99.99,0,WeatherLink 5.7,2013-05-16 08:10:00,
2013-05-16 02:15:00,47.4,43.1,29.70,SE,135,0.0,2.0,85,0.00,,,-99.99,0,WeatherLink 5.7,2013-05-16 08:15:00,
2013-05-16 02:20:00,47.3,43.0,29.67,SE,135,0.0,2.0,85,0.00,,,-99.99,0,WeatherLink 5.7,2013-05-16 08:20:00,
2013-05-16 02:25:00,47.1,42.5,29.67,SE,135,0.0,2.0,84,0.00,,,-99.99,0,WeatherLink 5.7,2013-05-16 08:25:00,
2013-05-16 02:35:00,47.0,42.4,29.67,SE,135,0.0,2.0,84,0.00,,,-99.99,0,WeatherLink 5.7,2013-05-16 08:35:00,
2013-05-16 02:40:00,47.0,42.4,29.67,SE,135,0.0,3.0,84,0.00,,,-99.99,0,WeatherLink 5.7,2013-05-16 08:40:00,
2013-05-16 02:50:00,47.0,42.7,29.67,North,-999,0.0,0.0,85,0.00,,,-99.99,0,WeatherLink 5.7,2013-05-16 08:50:00,
2013-05-16 02:55:00,46.7,42.4,29.67,North,-999,0.0,0.0,85,0.00,,,-99.99,0,WeatherLink 5.7,2013-05-16 08:55:00,
2013-05-16 03:00:00,46.4,42.1,29.67,North,-999,0.0,0.0,85,0.00,,,-99.99,0,WeatherLink 5.7,2013-05-16 09:00:00,
2013-05-16 03:10:00,46.2,41.9,29.67,North,-999,0.0,0.0,85,0.00,,,-99.99,0,WeatherLink 5.7,2013-05-16 09:10:00,
2013-05-16 03:20:00,46.2,41.9,29.66,North,-999,0.0,0.0,85,0.00,,,-99.99,0,WeatherLink 5.7,2013-05-16 09:20:00,
2013-05-16 03:25:00,46.2,41.9,29.66,North,-999,0.0,0.0,85,0.00,,,-99.99,0,WeatherLink 5.7,2013-05-16 09:25:00,
2013-05-16 03:35:00,45.8,41.5,29.66,SE,135,0.0,2.0,85,0.00,,,-99.99,0,WeatherLink 5.7,2013-05-16 09:35:00,
2013-05-16 03:40:00,45.8,41.5,29.66,SE,135,0.0,2.0,85,0.00,,,-99.99,0,WeatherLink 5.7,2013-05-16 09:40:00,
2013-05-16 03:45:00,45.8,41.5,29.66,SE,135,0.0,3.0,85,0.00,,,-99.99,0,WeatherLink 5.7,2013-05-16 09:45:00,
2013-05-16 03:55:00,45.5,41.3,29.66,SE,135,0.0,2.0,85,0.00,,,-99.99,0,WeatherLink 5.7,2013-05-16 09:55:00,
2013-05-16 04:00:00,45.4,41.2,29.66,SE,135,0.0,1.0,85,0.00,,,-99.99,0,WeatherLink 5.7,2013-05-16 10:00:00,
2013-05-16 04:10:00,45.2,41.0,29.67,SE,135,1.0,3.0,85,0.00,,,-99.99,0,WeatherLink 5.7,2013-05-16 10:10:00,
2013-05-16 04:20:00,44.9,40.7,29.68,SE,135,2.0,6.0,85,0.00,,,-99.99,0,WeatherLink 5.7,2013-05-16 10:20:00,
2013-05-16 04:25:00,44.9,40.7,29.68,SE,135,2.0,5.0,85,0.00,,,-99.99,0,WeatherLink 5.7,2013-05-16 10:25:00,
2013-05-16 04:30:00,44.8,40.6,29.68,SE,135,1.0,3.0,85,0.00,,,-99.99,0,WeatherLink 5.7,2013-05-16 10:30:00,
2013-05-16 04:40:00,44.2,40.0,29.68,North,-999,0.0,0.0,85,0.00,,,-99.99,0,WeatherLink 5.7,2013-05-16 10:40:00,
2013-05-16 04:45:00,44.0,39.8,29.68,North,-999,0.0,0.0,85,0.00,,,-99.99,0,WeatherLink 5.7,2013-05-16 10:45:00,
2013-05-16 04:50:00,43.8,39.9,29.69,SE,135,0.0,2.0,86,0.00,,,-99.99,0,WeatherLink 5.7,2013-05-16 10:50:00,
2013-05-16 05:00:00,43.3,39.4,29.69,North,-999,0.0,0.0,86,0.00,,,-99.99,0,WeatherLink 5.7,2013-05-16 11:00:00,
2013-05-16 05:10:00,43.2,39.3,29.70,North,-999,0.0,0.0,86,0.00,,,-99.99,0,WeatherLink 5.7,2013-05-16 11:10:00,
2013-05-16 05:15:00,43.2,39.6,29.70,SE,135,0.0,3.0,87,0.00,,,-99.99,0,WeatherLink 5.7,2013-05-16 11:15:00,
2013-05-16 05:20:00,43.2,39.6,29.71,SE,135,0.0,3.0,87,0.00,,,-99.99,0,WeatherLink 5.7,2013-05-16 11:20:00,
2013-05-16 05:30:00,42.9,39.6,29.71,North,-999,0.0,0.0,88,0.00,,,-99.99,0,WeatherLink 5.7,2013-05-16 11:30:00,
2013-05-16 05:35:00,42.8,39.5,29.71,SE,135,0.0,2.0,88,0.00,,,-99.99,0,WeatherLink 5.7,2013-05-16 11:35:00,
2013-05-16 05:45:00,42.6,39.3,29.71,North,-999,0.0,0.0,88,0.00,,,-99.99,0,WeatherLink 5.7,2013-05-16 11:45:00,
2013-05-16 05:55:00,42.6,39.3,29.72,SE,135,0.0,2.0,88,0.00,,,-99.99,0,WeatherLink 5.7,2013-05-16 11:55:00,
2013-05-16 06:00:00,42.5,39.2,29.72,SE,135,0.0,3.0,88,0.00,,,-99.99,0,WeatherLink 5.7,2013-05-16 12:00:00,
2013-05-16 06:10:00,42.5,39.2,29.73,North,-999,0.0,0.0,88,0.00,,,-99.99,11,WeatherLink 5.7,2013-05-16 12:10:00,
2013-05-16 06:15:00,42.3,39.0,29.73,SE,135,1.0,2.0,88,0.00,,,-99.99,12,WeatherLink 5.7,2013-05-16 12:15:00,
2013-05-16 06:20:00,42.3,39.0,29.75,SE,135,0.0,2.0,88,0.00,,,-99.99,12,WeatherLink 5.7,2013-05-16 12:20:00,
2013-05-16 06:25:00,42.2,38.9,29.75,SE,135,0.0,3.0,88,0.00,,,-99.99,12,WeatherLink 5.7,2013-05-16 12:25:00,
2013-05-16 06:35:00,42.3,39.0,29.75,East,90,1.0,5.0,88,0.00,,,-99.99,16,WeatherLink 5.7,2013-05-16 12:35:00,
2013-05-16 06:45:00,42.3,39.0,29.75,East,90,0.0,2.0,88,0.00,,,-99.99,25,WeatherLink 5.7,2013-05-16 12:45:00,
2013-05-16 06:50:00,42.5,39.2,29.75,East,90,0.0,3.0,88,0.00,,,-99.99,30,WeatherLink 5.7,2013-05-16 12:50:00,
2013-05-16 06:55:00,42.6,39.3,29.75,East,90,1.0,3.0,88,0.00,,,-99.99,32,WeatherLink 5.7,2013-05-16 12:55:00,
2013-05-16 07:00:00,42.6,39.3,29.75,East,90,1.0,3.0,88,0.00,,,-99.99,32,WeatherLink 5.7,2013-05-16 13:00:00,
2013-05-16 07:10:00,42.8,39.5,29.75,East,90,1.0,3.0,88,0.00,,,-99.99,27,WeatherLink 5.7,2013-05-16 13:10:00,
2013-05-16 07:15:00,42.6,39.3,29.75,East,90,2.0,3.0,88,0.00,,,-99.99,25,WeatherLink 5.7,2013-05-16 13:15:00,
2013-05-16 07:20:00,42.5,39.2,29.78,East,90,2.0,4.0,88,0.00,,,-99.99,25,WeatherLink 5.7,2013-05-16 13:20:00,
2013-05-16 07:30:00,42.5,39.2,29.78,East,90,3.0,4.0,88,0.00,,,-99.99,26,WeatherLink 5.7,2013-05-16 13:30:00,
2013-05-16 07:35:00,42.5,39.2,29.78,East,90,2.0,4.0,88,0.00,,,-99.99,61,WeatherLink 5.7,2013-05-16 13:35:00,
2013-05-16 07:45:00,43.8,40.5,29.78,East,90,4.0,6.0,88,0.00,,,-99.99,242,WeatherLink 5.7,2013-05-16 13:45:00,
2013-05-16 07:50:00,44.6,41.0,29.76,East,90,3.0,6.0,87,0.00,,,-99.99,262,WeatherLink 5.7,2013-05-16 13:50:00,
2013-05-16 08:00:00,46.4,42.1,29.76,East,90,1.0,5.0,85,0.00,,,-99.99,295,WeatherLink 5.7,2013-05-16 14:00:00,
2013-05-16 08:10:00,47.6,42.1,29.75,East,90,1.0,4.0,81,0.00,,,-99.99,331,WeatherLink 5.7,2013-05-16 14:10:00,
2013-05-16 08:20:00,48.3,41.4,29.83,East,90,3.0,5.0,77,0.00,,,-99.99,365,WeatherLink 5.7,2013-05-16 14:20:00,
2013-05-16 08:25:00,48.9,41.7,29.83,ESE,112,1.0,4.0,76,0.00,,,-99.99,382,WeatherLink 5.7,2013-05-16 14:25:00,
2013-05-16 08:30:00,49.2,41.3,29.83,East,90,3.0,5.0,74,0.00,,,-99.99,400,WeatherLink 5.7,2013-05-16 14:30:00,
2013-05-16 08:40:00,50.4,41.7,29.82,ESE,112,2.0,4.0,72,0.00,,,-99.99,450,WeatherLink 5.7,2013-05-16 14:40:00,
2013-05-16 08:45:00,51.0,41.9,29.82,East,90,2.0,4.0,71,0.00,,,-99.99,473,WeatherLink 5.7,2013-05-16 14:45:00,
2013-05-16 08:55:00,52.0,42.1,29.80,East,90,2.0,4.0,69,0.00,,,-99.99,507,WeatherLink 5.7,2013-05-16 14:55:00,
2013-05-16 09:00:00,52.2,41.6,29.80,East,90,3.0,6.0,67,0.00,,,-99.99,525,WeatherLink 5.7,2013-05-16 15:00:00,
2013-05-16 09:10:00,53.2,41.7,29.78,East,90,1.0,4.0,65,0.00,,,-99.99,558,WeatherLink 5.7,2013-05-16 15:10:00,
2013-05-16 09:20:00,55.4,43.0,29.77,ESE,112,1.0,4.0,63,0.00,,,-99.99,592,WeatherLink 5.7,2013-05-16 15:20:00,
2013-05-16 09:30:00,56.6,42.9,29.77,ESE,112,1.0,6.0,60,0.00,,,-99.99,624,WeatherLink 5.7,2013-05-16 15:30:00,
2013-05-16 09:35:00,57.0,43.2,29.74,East,90,1.0,4.0,60,0.00,,,-99.99,639,WeatherLink 5.7,2013-05-16 15:35:00,
2013-05-16 09:45:00,57.3,43.1,29.74,ESE,112,0.0,3.0,59,0.00,,,-99.99,671,WeatherLink 5.7,2013-05-16 15:45:00,
2013-05-16 09:50:00,57.8,44.0,29.74,East,90,1.0,4.0,60,0.00,,,-99.99,686,WeatherLink 5.7,2013-05-16 15:50:00,
2013-05-16 10:00:00,59.0,42.8,29.74,East,90,1.0,4.0,55,0.00,,,-99.99,713,WeatherLink 5.7,2013-05-16 16:00:00,
2013-05-16 10:10:00,59.9,43.2,29.72,East,90,1.0,4.0,54,0.00,,,-99.99,744,WeatherLink 5.7,2013-05-16 16:10:00,
2013-05-16 10:15:00,59.9,42.2,29.72,East,90,1.0,4.0,52,0.00,,,-99.99,757,WeatherLink 5.7,2013-05-16 16:15:00,
2013-05-16 10:20:00,60.7,42.5,29.70,ESE,112,0.0,3.0,51,0.00,,,-99.99,771,WeatherLink 5.7,2013-05-16 16:20:00,
2013-05-16 10:30:00,62.4,44.5,29.70,East,90,0.0,2.0,52,0.00,,,-99.99,796,WeatherLink 5.7,2013-05-16 16:30:00,
2013-05-16 10:35:00,62.3,43.4,29.69,ESE,112,1.0,4.0,50,0.00,,,-99.99,808,WeatherLink 5.7,2013-05-16 16:35:00,
2013-05-16 10:45:00,62.9,44.0,29.69,East,90,1.0,3.0,50,0.00,,,-99.99,832,WeatherLink 5.7,2013-05-16 16:45:00,
2013-05-16 10:50:00,62.9,42.4,29.68,East,90,1.0,4.0,47,0.00,,,-99.99,843,WeatherLink 5.7,2013-05-16 16:50:00,
2013-05-16 11:00:00,63.7,41.9,29.68,ESE,112,0.0,4.0,45,0.00,,,-99.99,865,WeatherLink 5.7,2013-05-16 17:00:00,
2013-05-16 11:10:00,64.7,42.3,29.65,ESE,112,0.0,4.0,44,0.00,,,-99.99,887,WeatherLink 5.7,2013-05-16 17:10:00,
2013-05-16 11:20:00,65.5,43.0,29.67,SSE,157,0.0,4.0,44,0.00,,,-99.99,911,WeatherLink 5.7,2013-05-16 17:20:00,
2013-05-16 11:25:00,66.1,45.3,29.67,ESE,112,1.0,4.0,47,0.00,,,-99.99,924,WeatherLink 5.7,2013-05-16 17:25:00,
2013-05-16 11:35:00,67.1,42.0,29.65,ESE,112,0.0,2.0,40,0.00,,,-99.99,941,WeatherLink 5.7,2013-05-16 17:35:00,
2013-05-16 11:40:00,67.6,41.7,29.65,ESE,112,0.0,3.0,39,0.00,,,-99.99,949,WeatherLink 5.7,2013-05-16 17:40:00,
2013-05-16 11:50:00,68.5,43.9,29.62,WSW,247,0.0,3.0,41,0.00,,,-99.99,967,WeatherLink 5.7,2013-05-16 17:50:00,
2013-05-16 11:55:00,68.8,41.5,29.62,WNW,292,0.0,3.0,37,0.00,,,-99.99,973,WeatherLink 5.7,2013-05-16 17:55:00,
2013-05-16 12:00:00,69.0,41.6,29.62,ESE,112,0.0,3.0,37,0.00,,,-99.99,981,WeatherLink 5.7,2013-05-16 18:00:00,
2013-05-16 12:10:00,71.0,38.0,29.61,NNW,337,1.0,5.0,30,0.00,,,-99.99,996,WeatherLink 5.7,2013-05-16 18:10:00,
2013-05-16 12:20:00,72.0,40.5,29.60,North,0,0.0,4.0,32,0.00,,,-99.99,1010,WeatherLink 5.7,2013-05-16 18:20:00,
2013-05-16 12:25:00,72.5,40.1,29.60,NW,315,0.0,4.0,31,0.00,,,-99.99,1028,WeatherLink 5.7,2013-05-16 18:25:00,
2013-05-16 12:35:00,73.2,39.0,29.58,NNW,337,2.0,10.0,29,0.00,,,-99.99,1039,WeatherLink 5.7,2013-05-16 18:35:00,
2013-05-16 12:40:00,73.4,40.9,29.58,NNW,337,2.0,10.0,31,0.00,,,-99.99,1036,WeatherLink 5.7,2013-05-16 18:40:00,
2013-05-16 12:50:00,73.7,40.3,29.57,NNW,337,2.0,14.0,30,0.00,,,-99.99,1037,WeatherLink 5.7,2013-05-16 18:50:00,
2013-05-16 12:55:00,73.9,38.7,29.57,North,0,1.0,9.0,28,0.00,,,-99.99,1039,WeatherLink 5.7,2013-05-16 18:55:00,
2013-05-16 13:00:00,73.9,37.8,29.57,NNW,337,1.0,7.0,27,0.00,,,-99.99,1059,WeatherLink 5.7,2013-05-16 19:00:00,
2013-05-16 13:10:00,74.8,39.5,29.57,NNW,337,1.0,7.0,28,0.00,,,-99.99,1056,WeatherLink 5.7,2013-05-16 19:10:00,
2013-05-16 13:15:00,75.1,41.5,29.57,NNW,337,2.0,7.0,30,0.00,,,-99.99,1088,WeatherLink 5.7,2013-05-16 19:15:00,
2013-05-16 13:20:00,75.0,38.7,29.56,NNW,337,3.0,10.0,27,0.00,,,-99.99,1108,WeatherLink 5.7,2013-05-16 19:20:00,
2013-05-16 13:25:00,74.1,38.9,29.56,NNW,337,1.0,9.0,28,0.00,,,-99.99,1123,WeatherLink 5.7,2013-05-16 19:25:00,
2013-05-16 13:35:00,74.8,36.6,29.55,NNW,337,2.0,7.0,25,0.00,,,-99.99,575,WeatherLink 5.7,2013-05-16 19:35:00,
2013-05-16 13:40:00,74.1,38.0,29.55,NNW,337,2.0,8.0,27,0.00,,,-99.99,531,WeatherLink 5.7,2013-05-16 19:40:00,
2013-05-16 13:50:00,74.8,36.6,29.55,NNW,337,3.0,11.0,25,0.00,,,-99.99,348,WeatherLink 5.7,2013-05-16 19:50:00,
2013-05-16 13:55:00,74.1,38.0,29.55,NNW,337,2.0,7.0,27,0.00,,,-99.99,222,WeatherLink 5.7,2013-05-16 19:55:00,
2013-05-16 14:00:00,73.7,36.7,29.55,North,0,1.0,5.0,26,0.00,,,-99.99,228,WeatherLink 5.7,2013-05-16 20:00:00,
2013-05-16 14:10:00,76.0,36.6,29.55,NNW,337,2.0,10.0,24,0.00,,,-99.99,1139,WeatherLink 5.7,2013-05-16 20:10:00,
2013-05-16 14:15:00,76.0,37.6,29.55,NNW,337,1.0,6.0,25,0.00,,,-99.99,208,WeatherLink 5.7,2013-05-16 20:15:00,
2013-05-16 14:25:00,76.2,39.8,29.56,NW,315,1.0,6.0,27,0.00,,,-99.99,1124,WeatherLink 5.7,2013-05-16 20:25:00,
2013-05-16 14:35:00,76.4,36.9,29.54,NW,315,5.0,13.0,24,0.00,,,-99.99,1083,WeatherLink 5.7,2013-05-16 20:35:00,
2013-05-16 14:40:00,76.9,38.4,29.54,NNW,337,3.0,11.0,25,0.00,,,-99.99,1062,WeatherLink 5.7,2013-05-16 20:40:00,
2013-05-16 14:50:00,77.1,36.4,29.53,NNW,337,1.0,6.0,23,0.00,,,-99.99,759,WeatherLink 5.7,2013-05-16 20:50:00,
2013-05-16 14:55:00,76.4,36.9,29.53,NNW,337,2.0,6.0,24,0.00,,,-99.99,727,WeatherLink 5.7,2013-05-16 20:55:00,
2013-05-16 15:00:00,76.9,35.1,29.53,North,0,1.0,6.0,22,0.00,,,-99.99,1034,WeatherLink 5.7,2013-05-16 21:00:00,
2013-05-16 15:10:00,75.3,33.8,29.53,NNW,337,1.0,5.0,22,0.00,,,-99.99,218,WeatherLink 5.7,2013-05-16 21:10:00,
2013-05-16 15:15:00,75.0,33.6,29.53,SSW,202,0.0,1.0,22,0.00,,,-99.99,187,WeatherLink 5.7,2013-05-16 21:15:00,
2013-05-16 15:25:00,73.2,33.2,29.56,ESE,112,5.0,12.0,23,0.00,,,-99.99,130,WeatherLink 5.7,2013-05-16 21:25:00,
2013-05-16 15:35:00,71.2,34.5,29.57,East,90,3.0,17.0,26,0.00,,,-99.99,160,WeatherLink 5.7,2013-05-16 21:35:00,
2013-05-16 15:40:00,71.7,35.0,29.57,WSW,247,0.0,3.0,26,0.00,,,-99.99,125,WeatherLink 5.7,2013-05-16 21:40:00,
2013-05-16 15:45:00,71.8,39.5,29.57,WSW,247,0.0,1.0,31,0.00,,,-99.99,165,WeatherLink 5.7,2013-05-16 21:45:00,
2013-05-16 15:55:00,71.3,38.2,29.57,SSE,157,0.0,4.0,30,0.00,,,-99.99,161,WeatherLink 5.7,2013-05-16 21:55:00,
2013-05-16 16:00:00,71.2,37.3,29.57,ESE,112,0.0,4.0,29,0.00,,,-99.99,97,WeatherLink 5.7,2013-05-16 22:00:00,
2013-05-16 16:10:00,70.8,39.5,29.57,SSW,202,0.0,4.0,32,0.00,,,-99.99,42,WeatherLink 5.7,2013-05-16 22:10:00,
2013-05-16 16:15:00,69.1,44.4,29.57,SSW,202,0.0,2.0,41,0.02,,,-99.99,55,WeatherLink 5.7,2013-05-16 22:15:00,
2013-05-16 16:20:00,66.3,45.5,29.60,East,90,0.0,4.0,47,0.02,,,-99.99,139,WeatherLink 5.7,2013-05-16 22:20:00,
2013-05-16 16:30:00,66.0,50.8,29.60,North,-999,0.0,0.0,58,0.03,,,-99.99,781,WeatherLink 5.7,2013-05-16 22:30:00,
2013-05-16 16:40:00,68.5,43.9,29.58,ENE,67,0.0,1.0,41,0.03,,,-99.99,167,WeatherLink 5.7,2013-05-16 22:40:00,
2013-05-16 16:45:00,68.8,44.8,29.58,North,-999,0.0,0.0,42,0.03,,,-99.99,130,WeatherLink 5.7,2013-05-16 22:45:00,
2013-05-16 16:55:00,69.1,44.4,29.58,WSW,247,0.0,4.0,41,0.03,,,-99.99,123,WeatherLink 5.7,2013-05-16 22:55:00,
2013-05-16 17:00:00,69.3,43.3,29.58,WSW,247,0.0,2.0,39,0.03,,,-99.99,129,WeatherLink 5.7,2013-05-16 23:00:00,
2013-05-16 17:10:00,68.6,43.9,29.59,NW,315,0.0,1.0,41,0.03,,,-99.99,196,WeatherLink 5.7,2013-05-16 23:10:00,
2013-05-16 17:15:00,68.6,45.2,29.59,NW,315,0.0,1.0,43,0.01,,,-99.99,212,WeatherLink 5.7,2013-05-16 23:15:00,
2013-05-16 17:20:00,68.6,39.1,29.58,NW,315,1.0,5.0,34,0.01,,,-99.99,205,WeatherLink 5.7,2013-05-16 23:20:00,
2013-05-16 17:30:00,70.6,36.8,29.58,NW,315,0.0,2.0,29,0.00,,,-99.99,508,WeatherLink 5.7,2013-05-16 23:30:00,
2013-05-16 17:40:00,72.0,39.7,29.57,NW,315,1.0,4.0,31,0.00,,,-99.99,557,WeatherLink 5.7,2013-05-16 23:40:00,
2013-05-16 17:45:00,71.7,38.6,29.57,NW,315,1.0,7.0,30,0.00,,,-99.99,227,WeatherLink 5.7,2013-05-16 23:45:00,
2013-05-16 17:55:00,71.5,38.4,29.57,NW,315,0.0,1.0,30,0.00,,,-99.99,322,WeatherLink 5.7,2013-05-16 23:55:00,
2013-05-16 18:00:00,71.7,37.7,29.57,NW,315,0.0,4.0,29,0.00,,,-99.99,384,WeatherLink 5.7,2013-05-17 00:00:00,
2013-05-16 18:10:00,72.4,38.3,29.56,NW,315,1.0,4.0,29,0.00,,,-99.99,164,WeatherLink 5.7,2013-05-17 00:10:00,
2013-05-16 18:15:00,72.5,38.4,29.56,NNW,337,1.0,4.0,29,0.00,,,-99.99,108,WeatherLink 5.7,2013-05-17 00:15:00,
2013-05-16 18:25:00,71.5,37.6,29.55,NW,315,0.0,1.0,29,0.00,,,-99.99,60,WeatherLink 5.7,2013-05-17 00:25:00,
2013-05-16 18:30:00,71.0,37.1,29.55,NW,315,0.0,4.0,29,0.00,,,-99.99,50,WeatherLink 5.7,2013-05-17 00:30:00,
2013-05-16 18:35:00,70.5,37.6,29.54,NW,315,0.0,2.0,30,0.00,,,-99.99,48,WeatherLink 5.7,2013-05-17 00:35:00,
2013-05-16 18:45:00,69.8,36.9,29.54,North,-999,0.0,0.0,30,0.00,,,-99.99,57,WeatherLink 5.7,2013-05-17 00:45:00,
2013-05-16 18:50:00,69.6,37.6,29.56,NW,315,0.0,1.0,31,0.00,,,-99.99,51,WeatherLink 5.7,2013-05-17 00:50:00,
2013-05-16 18:55:00,69.5,37.5,29.56,NW,315,0.0,1.0,31,0.00,,,-99.99,45,WeatherLink 5.7,2013-05-17 00:55:00,
2013-05-16 19:00:00,69.5,36.7,29.56,North,-999,0.0,0.0,30,0.00,,,-99.99,49,WeatherLink 5.7,2013-05-17 01:00:00,
2013-05-16 19:10:00,69.1,38.0,29.56,North,-999,0.0,0.0,32,0.00,,,-99.99,42,WeatherLink 5.7,2013-05-17 01:10:00,
2013-05-16 19:15:00,69.1,37.2,29.56,North,-999,0.0,0.0,31,0.00,,,-99.99,57,WeatherLink 5.7,2013-05-17 01:15:00,
2013-05-16 19:30:00,68.8,40.0,29.54,North,-999,0.0,0.0,35,0.00,,,-99.99,49,WeatherLink 5.7,2013-05-17 01:30:00,
2013-05-16 19:35:00,68.5,39.8,29.54,North,-999,0.0,0.0,35,0.00,,,-99.99,47,WeatherLink 5.7,2013-05-17 01:35:00,
2013-05-16 19:40:00,68.3,40.3,29.54,NW,315,0.0,1.0,36,0.00,,,-99.99,40,WeatherLink 5.7,2013-05-17 01:40:00,
2013-05-16 19:50:00,67.6,41.1,29.56,NW,315,0.0,1.0,38,0.00,,,-99.99,17,WeatherLink 5.7,2013-05-17 01:50:00,
2013-05-16 19:55:00,67.5,41.7,29.56,North,-999,0.0,0.0,39,0.00,,,-99.99,12,WeatherLink 5.7,2013-05-17 01:55:00,
2013-05-16 20:00:00,67.1,41.3,29.56,North,-999,0.0,0.0,39,0.00,,,-99.99,8,WeatherLink 5.7,2013-05-17 02:00:00,
2013-05-16 20:10:00,66.0,42.2,29.56,NW,315,0.0,1.0,42,0.00,,,-99.99,3,WeatherLink 5.7,2013-05-17 02:10:00,
2013-05-16 20:15:00,65.5,42.4,29.56,NW,315,0.0,2.0,43,0.00,,,-99.99,0,WeatherLink 5.7,2013-05-17 02:15:00,
2013-05-16 20:25:00,64.7,39.2,29.54,North,-999,0.0,0.0,39,0.00,,,-99.99,0,WeatherLink 5.7,2013-05-17 02:25:00,
2013-05-16 20:30:00,64.5,39.6,29.54,NW,315,0.0,1.0,40,0.00,,,-99.99,0,WeatherLink 5.7,2013-05-17 02:30:00,
2013-05-16 20:40:00,64.0,41.0,29.56,North,-999,0.0,0.0,43,0.00,,,-99.99,0,WeatherLink 5.7,2013-05-17 02:40:00,
2013-05-16 20:50:00,63.7,40.8,29.56,North,-999,0.0,0.0,43,0.00,,,-99.99,0,WeatherLink 5.7,2013-05-17 02:50:00,
2013-05-16 21:00:00,63.4,38.6,29.56,North,-999,0.0,0.0,40,0.00,,,-99.99,0,WeatherLink 5.7,2013-05-17 03:00:00,
2013-05-16 21:10:00,62.9,36.9,29.56,North,-999,0.0,0.0,38,0.00,,,-99.99,0,WeatherLink 5.7,2013-05-17 03:10:00,
2013-05-16 21:20:00,62.6,36.6,29.56,North,-999,0.0,0.0,38,0.00,,,-99.99,0,WeatherLink 5.7,2013-05-17 03:20:00,
2013-05-16 21:25:00,61.5,38.2,29.54,North,-999,0.0,0.0,42,0.00,,,-99.99,0,WeatherLink 5.7,2013-05-17 03:25:00,
2013-05-16 21:30:00,60.9,38.2,29.54,North,-999,0.0,0.0,43,0.00,,,-99.99,0,WeatherLink 5.7,2013-05-17 03:30:00,
2013-05-16 21:40:00,60.1,38.7,29.55,North,-999,0.0,0.0,45,0.00,,,-99.99,0,WeatherLink 5.7,2013-05-17 03:40:00,
2013-05-16 21:45:00,59.5,38.7,29.55,North,-999,0.0,0.0,46,0.00,,,-99.99,0,WeatherLink 5.7,2013-05-17 03:45:00,
2013-05-16 21:55:00,58.4,37.7,29.56,North,-999,0.0,0.0,46,0.00,,,-99.99,0,WeatherLink 5.7,2013-05-17 03:55:00,
2013-05-16 22:00:00,58.3,38.1,29.56,North,-999,0.0,0.0,47,0.00,,,-99.99,0,WeatherLink 5.7,2013-05-17 04:00:00,
2013-05-16 22:05:00,58.0,37.3,29.58,North,-999,0.0,0.0,46,0.00,,,-99.99,0,WeatherLink 5.7,2013-05-17 04:05:00,
2013-05-16 22:15:00,57.7,37.0,29.58,NW,315,0.0,1.0,46,0.00,,,-99.99,0,WeatherLink 5.7,2013-05-17 04:15:00,
2013-05-16 22:25:00,58.0,36.2,29.55,North,-999,0.0,0.0,44,0.00,,,-99.99,0,WeatherLink 5.7,2013-05-17 04:25:00,
2013-05-16 22:30:00,58.4,35.4,29.55,NE,45,0.0,2.0,42,0.00,,,-99.99,0,WeatherLink 5.7,2013-05-17 04:30:00,
2013-05-16 22:35:00,58.6,35.6,29.54,East,90,0.0,1.0,42,0.00,,,-99.99,0,WeatherLink 5.7,2013-05-17 04:35:00,
2013-05-16 22:40:00,58.7,35.7,29.54,East,90,0.0,1.0,42,0.00,,,-99.99,0,WeatherLink 5.7,2013-05-17 04:40:00,
2013-05-16 22:50:00,58.1,36.3,29.55,East,90,0.0,1.0,44,0.00,,,-99.99,0,WeatherLink 5.7,2013-05-17 04:50:00,
2013-05-16 23:00:00,57.7,35.9,29.55,East,90,0.0,3.0,44,0.00,,,-99.99,0,WeatherLink 5.7,2013-05-17 05:00:00,
2013-05-16 23:10:00,57.5,36.3,29.56,East,90,0.0,2.0,45,0.00,,,-99.99,0,WeatherLink 5.7,2013-05-17 05:10:00,
2013-05-16 23:15:00,56.9,36.3,29.56,East,90,0.0,3.0,46,0.00,,,-99.99,0,WeatherLink 5.7,2013-05-17 05:15:00,
2013-05-16 23:20:00,56.9,36.3,29.52,East,90,1.0,4.0,46,0.00,,,-99.99,0,WeatherLink 5.7,2013-05-17 05:20:00,
2013-05-16 23:25:00,56.7,35.6,29.52,SE,135,0.0,3.0,45,0.00,,,-99.99,0,WeatherLink 5.7,2013-05-17 05:25:00,
2013-05-16 23:35:00,56.0,35.5,29.54,SE,135,0.0,2.0,46,0.00,,,-99.99,0,WeatherLink 5.7,2013-05-17 05:35:00,
2013-05-16 23:40:00,55.9,35.9,29.54,SE,135,0.0,1.0,47,0.00,,,-99.99,0,WeatherLink 5.7,2013-05-17 05:40:00,
2013-05-16 23:50:00,55.0,36.2,29.54,SE,135,0.0,2.0,49,0.00,,,-99.99,0,WeatherLink 5.7,2013-05-17 05:50:00,
2013-05-16 23:55:00,55.0,35.7,29.54,SE,135,0.0,3.0,48,0.00,,,-99.99,0,WeatherLink 5.7,2013-05-17 05:55:00,